Location: Broletto
(44.6000°N, 10.5833°E)
Time: 06:31:13
(UTC+00:00)

CENTAUR R/B - Pass Details

Date: 18 April 2021
Orbit: 742 x 1446 km, 63.4° (Epoch: 18 April)

Event Time Altitude Azimuth Distance (km) Brightness Sun altitude
Rises 18:41:56 0° 319° (NW) 4,225 7.1 -6.8°
Reaches altitude 10° 18:44:43 10° 314° (NW) 3,336 6.6 -7.2°
Maximum altitude 18:52:37 50° 243° (WSW) 1,744 4.1 -8.5°
Drops below altitude 10° 19:01:03 10° 172° (S) 3,552 5.1 -9.9°
Sets 19:04:07 0° 167° (SSE) 4,517 5.6 -10.4°
